Regional Weather Roundup
Issued by NWS

Home | Current Version | Previous Version | Graphics & Text | Print | Product List | Glossary On
Versions: 1 2 3 4 5 6 7 8 9 10 11 12 13 14 15 16 17 18 19 20 21 22 23 24 25 26 27 28 29 30 31 32 33 34 35 36 37 38 39 40 41 42 43 44 45 46 47 48 49 50
000
ASUS43 KLSX 242207
RWRMO

WEATHER SUMMARY FOR MISSOURI
NATIONAL WEATHER SERVICE SPRINGFIELD MO
400 PM CST WED DEC 24 2014

NOTE: "FAIR" INDICATES FEW OR NO CLOUDS BELOW 12,000 FEET WITH NO
       SIGNIFICANT WEATHER AND/OR OBSTRUCTIONS TO VISIBILITY.
       CURRENT SKY AND/OR WEATHER CONDITIONS ARE NOT AVAILABLE FOR
       CHILLICOTHE AND FARMINGTON.

MOZ001>031-035>038-043-044-053-054-242300-
...NORTHERN AND WESTERN MISSOURI...

CITY           SKY/WX    TMP DP  RH WIND       PRES   REMARKS
KANSAS CTY INT CLOUDY    35  30  82 W12       29.81R WCI  27
KANSAS C DTWN  CLOUDY    38  30  73 W8        29.83R
LEE`S SUMMIT   CLOUDY    37  30  75 W8        29.82R
ST JOSEPH      CLOUDY    35  29  78 NW8       29.83R WCI  29
CHILLICOTHE      N/A     37  32  82 W8G17     29.78R
KIRKSVILLE     CLOUDY    35  33  92 W12       29.73R WCI  27

$$
MOZ066>068-077>081-088>096-101>105-242300-
...SOUTHWEST MISSOURI...

CITY           SKY/WX    TMP DP  RH WIND       PRES   REMARKS
SPRINGFIELD    CLOUDY    37  32  82 NW10      29.82R WCI  30
JOPLIN         CLOUDY    37  30  75 W15       29.89R WCI  28

$$
MOZ032>034-039>042-045>050-055>058-069>072-242300-
...CENTRAL MISSOURI...

CITY           SKY/WX    TMP DP  RH WIND       PRES   REMARKS
COLUMBIA       CLOUDY    38  33  82 W17       29.75R WCI  28
JEFFERSON CITY CLOUDY    39  33  79 W13G22    29.77R
ROLLA          CLOUDY    36  33  89 W10       29.73R WCI  28
SEDALIA        CLOUDY    37  34  89 W14       29.80R WCI  28
WHITEMAN AFB   CLOUDY    37  33  87 W10       29.80R WCI  29
WARRENSBURG    CLOUDY    37  32  81 W9        29.81R
OSAGE BEACH    CLOUDY    37  32  81 W7        29.78R

$$
MOZ051-052-059>065-242300-
...EAST CENTRAL MISSOURI...

CITY           SKY/WX    TMP DP  RH WIND       PRES   REMARKS
ST LOUIS INTL  LGT RAIN  39  34  82 W15       29.71R
SPIRIT OF STL  LGT RAIN  38  34  85 W12       29.71R
ST CHARLES     CLOUDY    38  34  85 W14G26    29.70R WCI  30

$$
MOZ072>076-082>087-097>100-106>115-242300-
...SOUTH CENTRAL AND SOUTHEAST MISSOURI...

CITY           SKY/WX    TMP DP  RH WIND       PRES   REMARKS
CAPE GIRARDEAU LGT RAIN  41  37  86 W16       29.76R
FARMINGTON     MOCLDY    37  34  87 W8        29.74R
POPLAR BLUFF   CLOUDY    42  32  67 W8        29.77R
WEST PLAINS    CLOUDY    38  31  76 W9G20     29.79R

$$


USA.gov is the U.S. government's official web portal to all federal, state and local government web resources and services.